Location: Unspecified
(0.0000°N, 0.0000°E)
Time: 08:29:59
(UTC+00:00)

SR - All Passes

Search period start: 23 November 2014 00:00
Search period end: 03 December 2014 00:00
Orbit: 577 x 887 km, 66.7° (Epoch: 21 November)

Date Brightness Start Highest point End Pass type
(mag) Time Alt. Az. Time Alt. Az. Time Alt. Az.
23 Nov - 05:10:07 10° SSW 05:15:46 65° WNW 05:21:38 10° N visible
23 Nov - 15:58:26 10° NNE 16:01:13 16° ENE 16:03:54 10° ESE daylight
23 Nov - 17:40:00 10° WNW 17:43:02 19° WSW 17:46:01 10° SSW daylight
24 Nov - 04:21:52 10° S 04:27:25 55° ESE 04:33:12 10° NNE visible
24 Nov - 06:07:37 10° W 06:09:29 12° WNW 06:11:22 10° NW daylight
24 Nov - 16:50:28 10° NNW 16:54:45 55° WSW 16:58:52 10° S daylight
25 Nov - 03:34:36 10° SSE 03:39:06 24° ESE 03:43:43 10° ENE visible
25 Nov - 05:16:12 10° SW 05:21:02 28° WNW 05:25:59 10° NNW visible
25 Nov - 16:02:11 10° N 16:06:25 47° ENE 16:10:29 10° SE daylight
26 Nov - 04:26:57 10° SSW 04:32:38 64° WNW 04:38:30 10° N visible
26 Nov - 15:15:14 10° NNE 15:18:01 17° ENE 15:20:44 10° ESE daylight
26 Nov - 16:56:52 10° WNW 16:59:51 18° WSW 17:02:47 10° SSW daylight
27 Nov - 03:38:40 10° S 03:44:16 56° ESE 03:50:03 10° NNE visible
27 Nov - 05:24:33 10° W 05:26:20 11° WNW 05:28:06 10° NW visible
27 Nov - 16:07:17 10° NNW 16:11:32 53° WSW 16:15:39 10° S daylight
28 Nov - 02:51:22 10° SSE 02:55:55 24° ESE 03:00:35 10° ENE visible
28 Nov - 04:33:02 10° SW 04:37:52 27° WNW 04:42:48 10° NNW visible
28 Nov - 15:18:59 10° N 15:23:12 48° ENE 15:27:15 10° SE daylight
29 Nov - 03:43:46 10° SSW 03:49:27 63° WNW 03:55:19 10° N visible
29 Nov - 14:31:59 10° NNE 14:34:47 17° ENE 14:37:31 10° ESE daylight
29 Nov - 16:13:41 10° WNW 16:16:37 18° WSW 16:19:30 10° SSW daylight
30 Nov - 02:55:27 10° S 03:01:04 57° ESE 03:06:52 10° NNE visible
30 Nov - 04:41:27 10° W 04:43:07 11° WNW 04:44:48 10° NW night (unlit)
30 Nov - 15:24:03 10° NNW 15:28:17 52° WSW 15:32:23 10° S daylight
01 Dec - 02:08:06 10° SSE 02:12:42 25° ESE 02:17:25 10° NE night (unlit)
01 Dec - 03:49:50 10° SW 03:54:39 27° WNW 03:59:34 10° NNW night (unlit)
01 Dec - 14:35:44 10° N 14:39:56 48° ENE 14:43:59 10° SE daylight
02 Dec - 03:00:31 10° SSW 03:06:13 62° WNW 03:12:05 10° N night (unlit)
02 Dec - 13:48:42 10° NNE 13:51:31 17° ENE 13:54:16 10° ESE daylight
02 Dec - 15:30:27 10° WNW 15:33:20 18° WSW 15:36:11 10° SSW daylight
